Weather Roundup
Issued by NWS Chicago, IL

Home | Current Version | Previous Version | Graphics & Text | Print | Product List | Glossary On
Versions: 1 2 3 4 5 6 7 8 9 10 11 12 13 14 15 16 17 18 19 20 21 22 23 24 25 26 27 28 29 30 31 32 33 34 35 36 37 38 39 40 41 42 43 44 45 46 47 48 49 50
000
NZUS59 KLOT 061606
HRRLOT

CHICAGO AREA WEATHER ROUNDUP
NATIONAL WEATHER SERVICE CHICAGO/ROMEOVILLE IL
1000 AM CST FRI MAR 06 2015

NOTE: "FAIR" INDICATES FEW OR NO CLOUDS BELOW 12,000 FEET WITH NO
SIGNIFICANT WEATHER AND/OR OBSTRUCTIONS TO VISIBILITY.

* THESE STATIONS ARE NOT UNDER NWS QUALITY CONTROL. THEY ALSO MAY NOT
  REPORT WEATHER SUCH AS PRECIPITATION OR FOG.

ILZ005-006-012>014-019>023-061700-
NORTHEAST ILLINOIS

CITY           SKY/WX    TMP DP  RH WIND       PRES   REMARKS
OHARE          MOSUNNY   16   4  59 S15       30.37F WCI   1
MIDWAY         MOSUNNY   16   3  56 S16G29    30.40F WCI   1
AURORA         SUNNY     13   3  64 S16       30.37F WCI  -3
LANSING*       SUNNY     13   3  65 SW15G22   30.44F WCI  -3
JOLIET*        SUNNY     15   4  62 S15G21    30.42F WCI   0
WAUKEGAN       MOSUNNY   17   5  59 SW22      30.33F WCI   0
DUPAGE AIRPORT SUNNY     13   2  61 S21       30.37F WCI  -5
WHEELING       SUNNY     17   3  54 S18       30.38F WCI   1
KANKAKEE*      SUNNY     14   6  71 S16       30.45F WCI  -2
MORRIS*        MOSUNNY   14   7  71 S17       30.41F WCI  -2
LEWIS AIRPORT* SUNNY     16   5  64 S21       30.39F WCI  -2
NORTHERLY IS     N/A     16   1  51 S18         N/A  WCI   0
$$

WIZ051-052-058>065-066-070>072-061700-
SOUTHEAST WISCONSIN

CITY           SKY/WX    TMP DP  RH WIND       PRES   REMARKS
MILWAUKEE      PTSUNNY   15   2  56 SW15G23   30.30F WCI   0
KENOSHA*       MOSUNNY   17   5  59 SW16      30.32F WCI   2
RACINE*        MOSUNNY   16   4  59 S16G22    30.33F WCI   1
BURLINGTON     SUNNY     14   3  61 S20       30.29F WCI  -3
WAUKESHA       SUNNY     16   1  53 S15       30.27F WCI   1
WEST BEND      MOSUNNY   19   3  49 SW15G24   30.24F WCI   5
$$

INZ001>003-010>013-019-020-061700-
NORTHWEST INDIANA

CITY           SKY/WX    TMP DP  RH WIND       PRES   REMARKS
GARY*          MOSUNNY   16   0  48 SW12      30.44F WCI   3
MICHIGAN CITY* NOT AVBL
RENSSELAER*    NOT AVBL
VALPARAISO     SUNNY     12   3  67 S16G23    30.43F WCI  -5
$$

LMZ740>746-061700-
SOUTHERN LAKE MICHIGAN

STATION/POSITION TIME  SKY/WX   TEMP WIND        PRES    VSBY
                                AIR  DIR/SP/G
                 (UTC)          (F)  (DEG/KT/KT) (MB)    (MI)
HARRISON CRIB    1600            15  200/ 25/ 31   N/A
BURNHAM HARBOR   1600            16  190/ 13/ 19   N/A
CALUMET HARBOR   1600            15  190/ 13/ 18 1028.4F
BURNS HARBOR     NOT AVBL
MICHIGAN CITY    1600            11  160/ 13/ 16   N/A
$$

ABBREVIATIONS USED IN REMARKS
   TC - TEMPERATURE IN CELSIUS
  WCI - WIND CHILL INDEX
   HX - HEAT INDEX
  VSB - VISIBILITY
$$


USA.gov is the U.S. government's official web portal to all federal, state and local government web resources and services.